Hourly Data Report for August 03, 2019

QUALICUM BEACH AIRPORT
BRITISH COLUMBIA
Current Station Operator: ECCC - MSC

49°20'14.000" N
124°23'38.000" W
58.20 m
1026562
71766
VOQ

Download Data

Hourly Data (August 2019)
Hourly Data Report for August 3, 2019
TIME
LST
Temp Definition
°C
Dew Point Definition
°C
Rel Hum Definition
%
Precip. Amount Definition
mm

Wind Dir Definition
10's deg

Wind Spd Definition
km/h
Visibility Definition
km
Stn Press Definition
kPa
Hmdx Definition


Wind Chill Definition


Weather Definition


00:00 17.2 13.5 79 0.0 29 7   101.45     LegendNANA
01:00 15.0 13.0 88 0.0 26 3   101.46     LegendNANA
02:00 16.1 13.1 83 0.0 27 6   101.49     LegendNANA
03:00 15.8 12.7 82 0.0 26 6   101.51     LegendNANA
04:00 15.3 12.3 82 0.0 27 5   101.49     LegendNANA
05:00 15.2 12.0 81 0.0 27 7   101.53     LegendNANA
06:00 15.7 12.1 79 0.0 28 5   101.56     LegendNANA
07:00 17.0 12.4 74 0.0 30 12   101.57     LegendNANA
08:00 16.7 12.7 77 0.0 31 15   101.60     LegendNANA
09:00 17.5 12.6 73 0.0 31 14   101.58     LegendNANA
10:00 18.8 12.7 68 0.0 32 13   101.56     LegendNANA
11:00 18.9 12.3 65 0.0 31 16   101.52     LegendNANA
12:00 20.4 11.6 57 0.0 31 13   101.47     LegendNANA
13:00 21.0 12.2 58 0.0 31 13   101.43     LegendNANA
14:00 22.4 11.8 51 0.0 34 9   101.39 25   LegendNANA
15:00 23.3 10.5 44 0.0 33 8   101.31 25   LegendNANA
16:00 23.6 10.6 44 0.0 32 10   101.26 25   LegendNANA
17:00 23.9 10.1 42 0.0 30 12   101.23 25   LegendNANA
18:00 23.6 8.8 39 0.0 32 9   101.19     LegendNANA
19:00 22.6 10.1 45 0.0 29 3   101.15     LegendNANA
20:00 19.0 11.8 63 0.0 28 3   101.13     LegendNANA
21:00 17.1 11.4 69 0.0 26 3   101.14     LegendNANA
22:00 16.0 9.1 64 0.0 26 5   101.13     LegendNANA
23:00 16.1 9.1 63 0.0 28 6   101.13     LegendNANA

Notes on Data Quality.

Legend

  • E = Estimated
  • M = Missing
  • NA = Not Available*
  • [empty] = Indicates an unobserved value
Date modified: